Location: Banios
(43.0451°N, 0.2335°E)
Time: 13:52:13
(UTC+00:00)

Cosmos 1703 - Pass Details

Date: 25 January 2021
Orbit: 524 x 538 km, 82.5° (Epoch: 25 February)

Event Time Altitude Azimuth Distance (km) Brightness Sun altitude
Exits shadow 05:56:07 22° 322° (NW) 1,209 4.6 -15.5°
Maximum altitude 05:58:09 38° 268° (W) 821 3.7 -15.1°
Drops below altitude 10° 06:01:47 10° 199° (SSW) 1,773 5.8 -14.5°
Sets 06:04:00 0° 191° (SSW) 2,660 6.8 -14.1°
